SCP
0 0 0 0 0 0 0 0 0 0 0 0 0 0 0 0 0 0 0 0 0 0
0 0 0 0 0 0 0 0 0 0 0 0 0 0 0 0 0 0 0 0 0 0
0 0 0 0 0 0 0 0 0 0 0 0 0 0 0 0 0 0 0 0 0 0
0 0 0 0 0 -0 0 0 0 0 0 0 0 0 0 0 0 0 0 0 0 0
0 0 0 0 0 0 0 0 0 0 0 0 0 0 0 0 0 0 0 0 0 0
0 0 0 0 0 0 0 0 0 0 0 0 0 0 0 0 0 0 0 0 0 0
0 0 0 0 0 0 0 0 0 0 0 0 0 0 0 0 0 0 0 0 0 0
0 0 0 0 0 0 0 0 0 0 0 0 0 0 0 0 0 0 0 0 0 0
0 0 0 0 0 0 0 0 0 0 0 0 0 0 0 0 0 0 0 0 0 0
0 0 0 0 0 0 0 0 0 0 0 0 0 0 0 0 0 0 0 0 0 0
0 0 0 0 0 0 0 0 -0 -0 -0 -0 -0 -0 0 0 0 0 0 0 0 0
0 0 0 0 -0 -0 -0 -0 -0 -0 -0 -0 -0 -0 -0 0 0 -0 -0 0 0 0
0 0 -0 -0 -0 -0 -0 -0 -0 -0 -0 -0 -0 -0 -0 -0 0 0 0 0 0 0
-0 -0 -0 -0 -0 -0 -0 -0 -0 -0 -0 -0 -0 -0 -0 0 0 0 0 0 0 0
Wind_Speed_500mb
93 97 107 98 94 82 67 56 41 34 31 22 21 23 23 22 20 17 16 16 18 21
12 26 55 50 69 81 67 55 42 29 21 12 17 22 22 20 18 17 15 15 14 15
41 8 9 25 20 26 38 44 41 35 25 27 22 24 22 21 20 16 20 18 17 18
13 7 21 13 29 14 27 28 30 28 24 28 27 30 28 25 22 17 18 20 18 23
26 29 34 29 29 21 22 25 20 28 30 31 35 31 28 28 26 22 24 24 21 25
31 33 36 35 29 24 23 20 24 30 32 34 33 33 33 30 31 29 26 24 21 21
33 31 32 33 30 30 27 25 27 30 35 32 34 33 34 32 29 27 23 20 19 17
28 25 27 26 27 27 30 36 30 29 33 35 33 32 31 27 25 23 20 18 16 14
11 19 26 33 34 28 22 23 26 28 29 33 33 30 28 24 21 17 17 18 16 9
22 20 15 19 26 29 25 21 18 22 23 25 25 22 21 22 18 20 16 15 11 9
20 18 18 22 28 28 21 23 23 20 21 21 19 17 16 19 19 18 17 17 13 14
13 12 14 15 15 19 20 21 19 16 19 18 16 17 14 14 14 14 16 17 18 20
7 10 16 19 18 18 18 18 17 17 16 15 15 16 17 16 17 20 22 21 24 27
12 17 20 17 17 14 12 12 12 13 11 11 13 17 18 22 25 26 28 29 29 30
Wind_Direction_500mb
219 218 212 215 207 199 193 189 188 195 196 202 209 207 205 201 197 189 192 196 207 221
183 201 186 188 187 179 172 171 163 156 172 178 182 182 181 185 180 174 165 164 171 180
55 41 78 118 114 125 134 130 142 143 146 157 164 166 160 162 157 156 145 139 146 145
50 160 103 149 119 99 102 111 113 126 160 149 164 159 149 151 147 145 139 132 135 132
167 145 131 127 121 119 108 101 127 139 156 152 155 144 143 142 136 139 137 128 124 116
123 135 134 139 130 122 128 139 148 156 150 154 137 136 134 137 134 135 131 124 123 120
118 135 140 138 147 145 139 142 151 150 147 143 138 137 136 138 133 128 120 119 119 120
131 147 153 152 146 144 145 141 141 148 146 148 152 147 144 138 132 131 133 135 132 130
157 161 159 164 158 169 153 145 148 159 155 162 161 157 149 151 144 137 149 157 160 138
112 119 134 184 171 162 161 171 179 185 180 166 161 159 161 169 178 190 183 187 175 160
121 130 145 146 155 168 185 201 195 188 178 184 185 186 190 195 194 193 204 210 216 216
134 143 153 137 151 166 167 172 171 170 179 179 178 176 182 196 208 226 229 232 242 257
158 156 149 155 148 138 136 137 148 154 157 157 161 177 183 215 228 243 251 258 263 271
168 151 150 150 148 148 154 167 165 160 174 175 184 203 219 237 253 265 272 271 272 276
Wind_Speed_850mb
93 97 107 98 94 82 67 56 41 34 31 22 21 23 23 22 20 17 16 16 18 21
12 26 55 50 69 81 67 55 42 29 21 12 17 22 22 20 18 17 15 15 14 15
41 8 9 25 20 26 38 44 41 35 25 27 22 24 22 21 20 16 20 18 17 18
13 7 21 13 29 14 27 28 30 28 24 28 27 30 28 25 22 17 18 20 18 23
26 29 34 29 29 21 22 25 20 28 30 31 35 31 28 28 26 22 24 24 21 25
31 33 36 35 29 24 23 20 24 30 32 34 33 33 33 30 31 29 26 24 21 21
33 31 32 33 30 30 27 25 27 30 35 32 34 33 34 32 29 27 23 20 19 17
28 25 27 26 27 27 30 36 30 29 33 35 33 32 31 27 25 23 20 18 16 14
11 19 26 33 34 28 22 23 26 28 29 33 33 30 28 24 21 17 17 18 16 9
22 20 15 19 26 29 25 21 18 22 23 25 25 22 21 22 18 20 16 15 11 9
20 18 18 22 28 28 21 23 23 20 21 21 19 17 16 19 19 18 17 17 13 14
13 12 14 15 15 19 20 21 19 16 19 18 16 17 14 14 14 14 16 17 18 20
7 10 16 19 18 18 18 18 17 17 16 15 15 16 17 16 17 20 22 21 24 27
12 17 20 17 17 14 12 12 12 13 11 11 13 17 18 22 25 26 28 29 29 30
Wind_Direction_850mb
219 218 212 215 207 199 193 189 188 195 196 202 209 207 205 201 197 189 192 196 207 221
183 201 186 188 187 179 172 171 163 156 172 178 182 182 181 185 180 174 165 164 171 180
55 41 78 118 114 125 134 130 142 143 146 157 164 166 160 162 157 156 145 139 146 145
50 160 103 149 119 99 102 111 113 126 160 149 164 159 149 151 147 145 139 132 135 132
167 145 131 127 121 119 108 101 127 139 156 152 155 144 143 142 136 139 137 128 124 116
123 135 134 139 130 122 128 139 148 156 150 154 137 136 134 137 134 135 131 124 123 120
118 135 140 138 147 145 139 142 151 150 147 143 138 137 136 138 133 128 120 119 119 120
131 147 153 152 146 144 145 141 141 148 146 148 152 147 144 138 132 131 133 135 132 130
157 161 159 164 158 169 153 145 148 159 155 162 161 157 149 151 144 137 149 157 160 138
112 119 134 184 171 162 161 171 179 185 180 166 161 159 161 169 178 190 183 187 175 160
121 130 145 146 155 168 185 201 195 188 178 184 185 186 190 195 194 193 204 210 216 216
134 143 153 137 151 166 167 172 171 170 179 179 178 176 182 196 208 226 229 232 242 257
158 156 149 155 148 138 136 137 148 154 157 157 161 177 183 215 228 243 251 258 263 271
168 151 150 150 148 148 154 167 165 160 174 175 184 203 219 237 253 265 272 271 272 276